Location: Gad�tanya
(48.0500°N, 20.8500°E)
Time: 11:15:52
(UTC+00:00)

Gblst 52 Del rocket - Pass Details

Date: 05 July 2020
Orbit: 805 x 1365 km, 51.5° (Epoch: 15 August)

Event Time Altitude Azimuth Distance (km) Brightness Sun altitude
Rises 21:08:50 0° 294° (WNW) 3,377 8.1 -16.3°
Reaches altitude 10° 21:11:15 10° 290° (WNW) 2,482 7.2 -16.4°
Maximum altitude 21:16:54 58° 213° (SSW) 1,061 4.5 -16.8°
Enters shadow 21:20:35 25° 144° (SE) 1,846 5.4 -17.0°
